Year,Month,Day,Hour,Minute,Value (Times are PST for temperature in C)
2016,04,19,00,00,13.40
2016,04,19,00,01,13.60
2016,04,19,00,02,13.70
2016,04,19,00,03,13.70
2016,04,19,00,04,13.80
2016,04,19,00,05,13.80
2016,04,19,00,06,13.90
2016,04,19,00,07,13.90
2016,04,19,00,08,14.00
2016,04,19,00,09,14.00
2016,04,19,00,10,14.10
2016,04,19,00,11,14.10
2016,04,19,00,12,14.20
2016,04,19,00,13,14.20
2016,04,19,00,14,14.20
2016,04,19,00,15,14.30
2016,04,19,00,16,14.30
2016,04,19,00,17,14.40
2016,04,19,00,18,14.40
2016,04,19,00,19,14.40
2016,04,19,00,20,14.40
2016,04,19,00,21,14.50
2016,04,19,00,22,14.50
2016,04,19,00,23,14.50
2016,04,19,00,24,14.50
2016,04,19,00,25,14.50
2016,04,19,00,26,14.50
2016,04,19,00,27,14.50
2016,04,19,00,28,14.50
2016,04,19,00,29,14.40
2016,04,19,00,30,14.40
2016,04,19,00,31,14.40
2016,04,19,00,32,14.30
2016,04,19,00,33,14.30
2016,04,19,00,34,14.30
2016,04,19,00,35,14.20
2016,04,19,00,36,14.20
2016,04,19,00,37,14.20
2016,04,19,00,38,14.10
2016,04,19,00,39,14.10
2016,04,19,00,40,14.10
2016,04,19,00,41,14.00
2016,04,19,00,42,14.00
2016,04,19,00,43,14.00
2016,04,19,00,44,13.90
2016,04,19,00,45,13.90
2016,04,19,00,46,13.90
2016,04,19,00,47,13.90
2016,04,19,00,48,13.80
2016,04,19,00,49,13.80
2016,04,19,00,50,13.80
2016,04,19,00,51,13.70
2016,04,19,00,52,13.70
2016,04,19,00,53,13.70
2016,04,19,00,54,13.60
2016,04,19,00,55,13.50
2016,04,19,00,56,13.50
2016,04,19,00,57,13.40
2016,04,19,00,58,13.40
2016,04,19,00,59,13.30
2016,04,19,01,00,13.30
2016,04,19,01,01,13.20
2016,04,19,01,02,13.20
2016,04,19,01,03,13.20
2016,04,19,01,04,13.10
2016,04,19,01,05,13.10
2016,04,19,01,06,13.10
2016,04,19,01,07,13.00
2016,04,19,01,08,12.90
2016,04,19,01,09,12.90
2016,04,19,01,10,12.80
2016,04,19,01,11,12.80
2016,04,19,01,12,12.80
2016,04,19,01,13,12.80
2016,04,19,01,14,12.80
2016,04,19,01,15,12.70
2016,04,19,01,16,12.70
2016,04,19,01,17,12.70
2016,04,19,01,18,12.60
2016,04,19,01,19,12.60
2016,04,19,01,20,12.60
2016,04,19,01,21,12.60
2016,04,19,01,22,12.60
2016,04,19,01,23,12.50
2016,04,19,01,24,12.50
2016,04,19,01,25,12.50
2016,04,19,01,26,12.40
2016,04,19,01,27,12.40
2016,04,19,01,28,12.40
2016,04,19,01,29,12.40
2016,04,19,01,30,12.30
2016,04,19,01,31,12.30
2016,04,19,01,32,12.30
2016,04,19,01,33,12.30
2016,04,19,01,34,12.30
2016,04,19,01,35,12.20
2016,04,19,01,36,12.20
2016,04,19,01,37,12.20
2016,04,19,01,38,12.20
2016,04,19,01,39,12.20
2016,04,19,01,40,12.10
2016,04,19,01,41,12.10
2016,04,19,01,42,12.10
2016,04,19,01,43,12.10
2016,04,19,01,44,12.00
2016,04,19,01,45,12.00
2016,04,19,01,46,12.00
2016,04,19,01,47,12.00
2016,04,19,01,48,12.00
2016,04,19,01,49,11.90
2016,04,19,01,50,11.90
2016,04,19,01,51,11.90
2016,04,19,01,52,11.90
2016,04,19,01,53,11.90
2016,04,19,01,54,11.90
2016,04,19,01,55,11.90
2016,04,19,01,56,11.90
2016,04,19,01,57,11.80
2016,04,19,01,58,11.80
2016,04,19,01,59,11.80
2016,04,19,02,00,11.80
2016,04,19,02,01,11.80
2016,04,19,02,02,11.80
2016,04,19,02,03,11.80
2016,04,19,02,04,11.70
2016,04,19,02,05,11.70
2016,04,19,02,06,11.70
2016,04,19,02,07,11.70
2016,04,19,02,08,11.70
2016,04,19,02,09,11.70
2016,04,19,02,10,11.60
2016,04,19,02,11,11.60
2016,04,19,02,12,11.60
2016,04,19,02,13,11.60
2016,04,19,02,14,11.60
2016,04,19,02,15,11.60
2016,04,19,02,16,11.50
2016,04,19,02,17,11.50
2016,04,19,02,18,11.50
2016,04,19,02,19,11.50
2016,04,19,02,20,11.50
2016,04,19,02,21,11.50
2016,04,19,02,22,11.40
2016,04,19,02,23,11.40
2016,04,19,02,24,11.50
2016,04,19,02,25,11.50
2016,04,19,02,26,11.50
2016,04,19,02,27,11.50
2016,04,19,02,28,11.50
2016,04,19,02,29,11.60
2016,04,19,02,30,11.60
2016,04,19,02,31,11.50
2016,04,19,02,32,11.50
2016,04,19,02,33,11.50
2016,04,19,02,34,11.50
2016,04,19,02,35,11.50
2016,04,19,02,36,11.40
2016,04,19,02,37,11.40
2016,04,19,02,38,11.40
2016,04,19,02,39,11.40
2016,04,19,02,40,11.40
2016,04,19,02,41,11.40
2016,04,19,02,42,11.40
2016,04,19,02,43,11.40
2016,04,19,02,44,11.40
2016,04,19,02,45,11.40
2016,04,19,02,46,11.30
2016,04,19,02,47,11.30
2016,04,19,02,48,11.30
2016,04,19,02,49,11.30
2016,04,19,02,50,11.30
2016,04,19,02,51,11.30
2016,04,19,02,52,11.30
2016,04,19,02,53,11.30
2016,04,19,02,54,11.30
2016,04,19,02,55,11.30
2016,04,19,02,56,11.20
2016,04,19,02,57,11.20
2016,04,19,02,58,11.20
2016,04,19,02,59,11.20
2016,04,19,03,00,11.20
2016,04,19,03,01,11.20
2016,04,19,03,02,11.20
2016,04,19,03,06,11.10
2016,04,19,03,07,11.00
2016,04,19,03,08,11.00
2016,04,19,03,09,11.00
2016,04,19,03,10,10.90
2016,04,19,03,11,10.90
2016,04,19,03,12,10.90
2016,04,19,03,13,10.90
2016,04,19,03,14,10.90
2016,04,19,03,15,10.90
2016,04,19,03,16,10.90
2016,04,19,03,17,10.90
2016,04,19,03,18,10.90
2016,04,19,03,19,10.90
2016,04,19,03,20,10.90
2016,04,19,03,21,10.90
2016,04,19,03,22,10.90
2016,04,19,03,23,10.80
2016,04,19,03,24,10.80
2016,04,19,03,25,10.80
2016,04,19,03,26,10.80
2016,04,19,03,27,10.80
2016,04,19,03,28,10.80
2016,04,19,03,29,10.80
2016,04,19,03,30,10.70
2016,04,19,03,31,10.70
2016,04,19,03,32,10.70
2016,04,19,03,33,10.70
2016,04,19,03,34,10.70
2016,04,19,03,35,10.70
2016,04,19,03,36,10.70
2016,04,19,03,37,10.70
2016,04,19,03,38,10.70
2016,04,19,03,39,10.70
2016,04,19,03,40,10.70
2016,04,19,03,41,10.70
2016,04,19,03,42,10.60
2016,04,19,03,43,10.60
2016,04,19,03,44,10.60
2016,04,19,03,45,10.60
2016,04,19,03,46,10.60
2016,04,19,03,47,10.60
2016,04,19,03,48,10.60
2016,04,19,03,49,10.60
2016,04,19,03,50,10.60
2016,04,19,03,51,10.60
2016,04,19,03,52,10.60
2016,04,19,03,53,10.50
2016,04,19,03,54,10.50
2016,04,19,03,55,10.50
2016,04,19,03,56,10.50
2016,04,19,03,57,10.40
2016,04,19,03,58,10.40
2016,04,19,03,59,10.40
2016,04,19,04,00,10.40
2016,04,19,04,01,10.40
2016,04,19,04,02,10.40
2016,04,19,04,03,10.30
2016,04,19,04,04,10.30
2016,04,19,04,05,10.30
2016,04,19,04,06,10.30
2016,04,19,04,07,10.30
2016,04,19,04,08,10.30
2016,04,19,04,09,10.30
2016,04,19,04,10,10.30
2016,04,19,04,11,10.30
2016,04,19,04,12,10.30
2016,04,19,04,13,10.30
2016,04,19,04,14,10.30
2016,04,19,04,15,10.30
2016,04,19,04,16,10.30
2016,04,19,04,17,10.30
2016,04,19,04,18,10.30
2016,04,19,04,19,10.20
2016,04,19,04,20,10.20
2016,04,19,04,21,10.20
2016,04,19,04,22,10.20
2016,04,19,04,23,10.20
2016,04,19,04,24,10.20
2016,04,19,04,25,10.20
2016,04,19,04,26,10.20
2016,04,19,04,27,10.20
2016,04,19,04,28,10.20
2016,04,19,04,29,10.20
2016,04,19,04,30,10.20
2016,04,19,04,31,10.20
2016,04,19,04,32,10.20
2016,04,19,04,33,10.20
2016,04,19,04,34,10.20
2016,04,19,04,35,10.30
2016,04,19,04,36,10.30
2016,04,19,04,37,10.30
2016,04,19,04,38,10.30
2016,04,19,04,39,10.30
2016,04,19,04,40,10.30
2016,04,19,04,41,10.30
2016,04,19,04,42,10.30
2016,04,19,04,43,10.30
2016,04,19,04,44,10.30
2016,04,19,04,45,10.20
2016,04,19,04,46,10.20
2016,04,19,04,47,10.20
2016,04,19,04,48,10.20
2016,04,19,04,49,10.20
2016,04,19,04,50,10.20
2016,04,19,04,51,10.20
2016,04,19,04,52,10.20
2016,04,19,04,53,10.20
2016,04,19,04,54,10.20
2016,04,19,04,55,10.20
2016,04,19,04,56,10.20
2016,04,19,04,57,10.20
2016,04,19,04,58,10.20
2016,04,19,04,59,10.20
2016,04,19,05,00,10.20
2016,04,19,05,01,10.20
2016,04,19,05,02,10.20
2016,04,19,05,03,10.20
2016,04,19,05,04,10.20
2016,04,19,05,05,10.20
2016,04,19,05,06,10.20
2016,04,19,05,07,10.20
2016,04,19,05,08,10.20
2016,04,19,05,09,10.20
2016,04,19,05,10,10.20
2016,04,19,05,11,10.20
2016,04,19,05,12,10.20
2016,04,19,05,13,10.20
2016,04,19,05,14,10.20
2016,04,19,05,15,10.20
2016,04,19,05,16,10.20
2016,04,19,05,17,10.20
2016,04,19,05,18,10.20
2016,04,19,05,19,10.20
2016,04,19,05,20,10.20
2016,04,19,05,21,10.20
2016,04,19,05,22,10.20
2016,04,19,05,23,10.20
2016,04,19,05,24,10.20
2016,04,19,05,25,10.20
2016,04,19,05,26,10.20
2016,04,19,05,27,10.20
2016,04,19,05,28,10.20
2016,04,19,05,29,10.20
2016,04,19,05,30,10.20
2016,04,19,05,31,10.20
2016,04,19,05,32,10.20
2016,04,19,05,33,10.20
2016,04,19,05,34,10.20
2016,04,19,05,35,10.20
2016,04,19,05,36,10.20
2016,04,19,05,37,10.20
2016,04,19,05,38,10.20
2016,04,19,05,39,10.20
2016,04,19,05,40,10.20
2016,04,19,05,41,10.20
2016,04,19,05,42,10.20
2016,04,19,05,43,10.20
2016,04,19,05,44,10.20
2016,04,19,05,45,10.20
2016,04,19,05,46,10.20
2016,04,19,05,47,10.20
2016,04,19,05,48,10.20
2016,04,19,05,49,10.20
2016,04,19,05,50,10.10
2016,04,19,05,51,10.10
2016,04,19,05,52,10.10
2016,04,19,05,53,10.10
2016,04,19,05,54,10.10
2016,04,19,05,55,10.10
2016,04,19,05,56,10.10
2016,04,19,05,57,10.10
2016,04,19,05,58,10.10
2016,04,19,05,59,10.10
2016,04,19,06,00,10.10
2016,04,19,06,01,10.10
2016,04,19,06,02,10.10
2016,04,19,06,03,10.10
2016,04,19,06,04,10.10
2016,04,19,06,05,10.00
2016,04,19,06,06,10.00
2016,04,19,06,07,10.00
2016,04,19,06,08,10.00
2016,04,19,06,09,10.00
2016,04,19,06,10,10.00
2016,04,19,06,11,9.90
2016,04,19,06,12,10.00
2016,04,19,06,13,9.90
2016,04,19,06,14,10.00
2016,04,19,06,15,10.00
2016,04,19,06,16,10.00
2016,04,19,06,17,10.00
2016,04,19,06,18,10.00
2016,04,19,06,19,10.00
2016,04,19,06,20,10.00
2016,04,19,06,21,10.00
2016,04,19,06,22,10.00
2016,04,19,06,23,10.00
2016,04,19,06,24,10.00
2016,04,19,06,25,10.00
2016,04,19,06,26,9.90
2016,04,19,06,27,9.90
2016,04,19,06,28,9.90
2016,04,19,06,29,9.90
2016,04,19,06,30,9.90
2016,04,19,06,31,9.90
2016,04,19,06,32,9.90
2016,04,19,06,33,9.90
2016,04,19,06,34,9.90
2016,04,19,06,35,9.90
2016,04,19,06,36,9.90
2016,04,19,06,37,9.90
2016,04,19,06,38,9.90
2016,04,19,06,39,9.90
2016,04,19,06,40,9.90
2016,04,19,06,41,9.90
2016,04,19,06,42,9.90
2016,04,19,06,43,9.90
2016,04,19,06,44,9.90
2016,04,19,06,45,9.90
2016,04,19,06,46,9.90
2016,04,19,06,47,9.90
2016,04,19,06,48,9.80
2016,04,19,06,49,9.90
2016,04,19,06,50,9.90
2016,04,19,06,51,9.90
2016,04,19,06,52,9.90
2016,04,19,06,53,9.90
2016,04,19,06,54,9.90
2016,04,19,06,55,9.90
2016,04,19,06,56,10.00
2016,04,19,06,57,10.00
2016,04,19,06,58,10.00
2016,04,19,06,59,10.00
2016,04,19,07,00,10.00
2016,04,19,07,01,10.00
2016,04,19,07,02,10.00
2016,04,19,07,03,10.00
2016,04,19,07,04,10.10
2016,04,19,07,05,10.10
2016,04,19,07,06,10.10
2016,04,19,07,07,10.10
2016,04,19,07,08,10.10
2016,04,19,07,09,10.10
2016,04,19,07,10,10.10
2016,04,19,07,11,10.10
2016,04,19,07,12,10.20
2016,04,19,07,13,10.20
2016,04,19,07,14,10.20
2016,04,19,07,15,10.20
2016,04,19,07,16,10.20
2016,04,19,07,17,10.20
2016,04,19,07,18,10.20
2016,04,19,07,19,10.20
2016,04,19,07,20,10.20
2016,04,19,07,21,10.20
2016,04,19,07,22,10.20
2016,04,19,07,23,10.20
2016,04,19,07,24,10.30
2016,04,19,07,25,10.30
2016,04,19,07,26,10.30
2016,04,19,07,27,10.30
2016,04,19,07,28,10.30
2016,04,19,07,29,10.40
2016,04,19,07,30,10.40
2016,04,19,07,31,10.40
2016,04,19,07,32,10.40
2016,04,19,07,33,10.50
2016,04,19,07,34,10.50
2016,04,19,07,35,10.50
2016,04,19,07,36,10.50
2016,04,19,07,37,10.60
2016,04,19,07,38,10.60
2016,04,19,07,39,10.60
2016,04,19,07,40,10.70
2016,04,19,07,41,10.70
2016,04,19,07,42,10.70
2016,04,19,07,43,10.80
2016,04,19,07,44,10.80
2016,04,19,07,45,10.80
2016,04,19,07,46,10.80
2016,04,19,07,47,10.90
2016,04,19,07,48,10.90
2016,04,19,07,49,11.00
2016,04,19,07,50,11.00
2016,04,19,07,51,11.10
2016,04,19,07,52,11.10
2016,04,19,07,53,11.20
2016,04,19,07,54,11.20
2016,04,19,07,55,11.30
2016,04,19,07,56,11.30
2016,04,19,07,57,11.30
2016,04,19,07,58,11.40
2016,04,19,07,59,11.40
2016,04,19,08,00,11.50
2016,04,19,08,01,11.50
2016,04,19,08,02,11.60
2016,04,19,08,03,11.60
2016,04,19,08,04,11.70
2016,04,19,08,05,11.70
2016,04,19,08,06,11.80
2016,04,19,08,07,11.80
2016,04,19,08,08,11.90
2016,04,19,08,09,11.90
2016,04,19,08,10,12.00
2016,04,19,08,11,12.00
2016,04,19,08,12,12.10
2016,04,19,08,13,12.10
2016,04,19,08,14,12.20
2016,04,19,08,15,12.20
2016,04,19,08,16,12.30
2016,04,19,08,17,12.40
2016,04,19,08,18,12.50
2016,04,19,08,19,12.60
2016,04,19,08,20,12.60
2016,04,19,08,21,12.70
2016,04,19,08,22,12.80
2016,04,19,08,23,12.80
2016,04,19,08,24,12.90
2016,04,19,08,25,13.00
2016,04,19,08,26,13.10
2016,04,19,08,27,13.20
2016,04,19,08,28,13.30
2016,04,19,08,29,13.30
2016,04,19,08,30,13.50
2016,04,19,08,31,13.60
2016,04,19,08,32,13.70
2016,04,19,08,33,13.80
2016,04,19,08,34,13.90
2016,04,19,08,35,14.00
2016,04,19,08,36,14.20
2016,04,19,08,37,14.30
2016,04,19,08,38,14.40
2016,04,19,08,39,14.50
2016,04,19,08,40,14.60
2016,04,19,08,41,14.70
2016,04,19,08,42,14.80
2016,04,19,08,43,14.90
2016,04,19,08,44,15.00
2016,04,19,08,45,15.10
2016,04,19,08,46,15.10
2016,04,19,08,47,15.20
2016,04,19,08,48,15.30
2016,04,19,08,49,15.30
2016,04,19,08,50,15.40
2016,04,19,08,51,15.50
2016,04,19,08,52,15.50
2016,04,19,08,53,15.60
2016,04,19,08,54,15.60
2016,04,19,08,55,15.70
2016,04,19,08,56,15.70
2016,04,19,08,57,15.70
2016,04,19,08,58,15.80
2016,04,19,08,59,15.80
2016,04,19,09,00,15.80
2016,04,19,09,01,15.80
2016,04,19,09,02,15.80
2016,04,19,09,03,15.80
2016,04,19,09,04,15.90
2016,04,19,09,05,15.90
2016,04,19,09,06,15.90
2016,04,19,09,07,15.90
2016,04,19,09,08,15.90
2016,04,19,09,09,15.90
2016,04,19,09,10,15.90
2016,04,19,09,11,15.90
2016,04,19,09,12,15.90
2016,04,19,09,13,15.90
2016,04,19,09,14,15.90
2016,04,19,09,15,15.90
2016,04,19,09,16,16.00
2016,04,19,09,17,16.00
2016,04,19,09,18,16.00
2016,04,19,09,19,16.00
2016,04,19,09,20,16.00
2016,04,19,09,21,16.00
2016,04,19,09,22,16.00
2016,04,19,09,23,16.00
2016,04,19,09,24,16.00
2016,04,19,09,25,16.00
2016,04,19,09,26,16.10
2016,04,19,09,27,16.10
2016,04,19,09,28,16.10
2016,04,19,09,29,16.10
2016,04,19,09,30,16.20
2016,04,19,09,31,16.20
2016,04,19,09,32,16.20
2016,04,19,09,33,16.30
2016,04,19,09,34,16.30
2016,04,19,09,35,16.30
2016,04,19,09,36,16.40
2016,04,19,09,37,16.40
2016,04,19,09,38,16.50
2016,04,19,09,39,16.50
2016,04,19,09,40,16.60
2016,04,19,09,41,16.70
2016,04,19,09,42,16.70
2016,04,19,09,43,16.80
2016,04,19,09,44,16.80
2016,04,19,09,45,16.90
2016,04,19,09,46,16.90
2016,04,19,09,47,17.00
2016,04,19,09,48,17.00
2016,04,19,09,49,17.10
2016,04,19,09,50,17.10
2016,04,19,09,51,17.20
2016,04,19,09,52,17.30
2016,04,19,09,53,17.30
2016,04,19,09,54,17.40
2016,04,19,09,55,17.50
2016,04,19,09,56,17.50
2016,04,19,09,57,17.60
2016,04,19,09,58,17.70
2016,04,19,09,59,17.70
2016,04,19,10,00,17.80
2016,04,19,10,01,17.80
2016,04,19,10,02,17.80
2016,04,19,10,03,17.90
2016,04,19,10,04,17.90
2016,04,19,10,05,18.00
2016,04,19,10,06,18.10
2016,04,19,10,07,18.10
2016,04,19,10,08,18.20
2016,04,19,10,09,18.20
2016,04,19,10,10,18.30
2016,04,19,10,11,18.30
2016,04,19,10,12,18.40
2016,04,19,10,13,18.40
2016,04,19,10,14,18.40
2016,04,19,10,15,18.40
2016,04,19,10,16,18.40
2016,04,19,10,17,18.50
2016,04,19,10,18,18.50
2016,04,19,10,19,18.50
2016,04,19,10,20,18.50
2016,04,19,10,21,18.60
2016,04,19,10,22,18.60
2016,04,19,10,23,18.70
2016,04,19,10,24,18.70
2016,04,19,10,25,18.80
2016,04,19,10,26,18.80
2016,04,19,10,27,18.90
2016,04,19,10,28,18.90
2016,04,19,10,29,18.90
2016,04,19,10,30,19.00
2016,04,19,10,31,19.00
2016,04,19,10,32,19.10
2016,04,19,10,33,19.10
2016,04,19,10,34,19.20
2016,04,19,10,35,19.30
2016,04,19,10,36,19.30
2016,04,19,10,37,19.30
2016,04,19,10,38,19.40
2016,04,19,10,39,19.40
2016,04,19,10,40,19.40
2016,04,19,10,41,19.40
2016,04,19,10,42,19.40
2016,04,19,10,43,19.40
2016,04,19,10,44,19.40
2016,04,19,10,45,19.40
2016,04,19,10,46,19.40
2016,04,19,10,47,19.40
2016,04,19,10,48,19.40
2016,04,19,10,49,19.40
2016,04,19,10,50,19.40
2016,04,19,10,51,19.40
2016,04,19,10,52,19.40
2016,04,19,10,53,19.40
2016,04,19,10,54,19.40
2016,04,19,10,55,19.40
2016,04,19,10,56,19.40
2016,04,19,10,57,19.40
2016,04,19,10,58,19.40
2016,04,19,10,59,19.50
2016,04,19,11,00,19.50
2016,04,19,11,01,19.60
2016,04,19,11,02,19.70
2016,04,19,11,03,19.80
2016,04,19,11,04,19.90
2016,04,19,11,05,20.00
2016,04,19,11,06,20.00
2016,04,19,11,07,20.10
2016,04,19,11,08,20.10
2016,04,19,11,09,20.10
2016,04,19,11,10,20.10
2016,04,19,11,11,20.10
2016,04,19,11,12,20.00
2016,04,19,11,13,19.90
2016,04,19,11,14,19.90
2016,04,19,11,15,19.90
2016,04,19,11,16,19.90
2016,04,19,11,17,19.90
2016,04,19,11,18,19.90
2016,04,19,11,19,20.00
2016,04,19,11,20,20.00
2016,04,19,11,21,20.10
2016,04,19,11,22,20.10
2016,04,19,11,23,20.20
2016,04,19,11,24,20.30
2016,04,19,11,25,20.30
2016,04,19,11,26,20.30
2016,04,19,11,27,20.30
2016,04,19,11,28,20.30
2016,04,19,11,29,20.30
2016,04,19,11,30,20.30
2016,04,19,11,31,20.30
2016,04,19,11,32,20.30
2016,04,19,11,33,20.40
2016,04,19,11,34,20.40
2016,04,19,11,35,20.40
2016,04,19,11,36,20.40
2016,04,19,11,37,20.40
2016,04,19,11,38,20.30
2016,04,19,11,39,20.30
2016,04,19,11,40,20.20
2016,04,19,11,41,20.20
2016,04,19,11,42,20.20
2016,04,19,11,43,20.20
2016,04,19,11,44,20.20
2016,04,19,11,45,20.20
2016,04,19,11,46,20.20
2016,04,19,11,47,20.20
2016,04,19,11,48,20.30
2016,04,19,11,49,20.30
2016,04,19,11,50,20.30
2016,04,19,11,51,20.30
2016,04,19,11,52,20.40
2016,04,19,11,53,20.40
2016,04,19,11,54,20.40
2016,04,19,11,55,20.40
2016,04,19,11,56,20.40
2016,04,19,11,57,20.40
2016,04,19,11,58,20.40
2016,04,19,11,59,20.40
2016,04,19,12,00,20.40
2016,04,19,12,01,20.50
2016,04,19,12,02,20.50
2016,04,19,12,03,20.50
2016,04,19,12,04,20.60
2016,04,19,12,05,20.60
2016,04,19,12,06,20.60
2016,04,19,12,07,20.60
2016,04,19,12,08,20.60
2016,04,19,12,09,20.60
2016,04,19,12,10,20.60
2016,04,19,12,11,20.70
2016,04,19,12,12,20.70
2016,04,19,12,13,20.70
2016,04,19,12,14,20.70
2016,04,19,12,15,20.80
2016,04,19,12,16,20.80
2016,04,19,12,17,20.70
2016,04,19,12,18,20.70
2016,04,19,12,19,20.70
2016,04,19,12,20,20.80
2016,04,19,12,21,20.80
2016,04,19,12,22,20.80
2016,04,19,12,23,20.80
2016,04,19,12,24,20.80
2016,04,19,12,25,20.80
2016,04,19,12,26,20.90
2016,04,19,12,27,20.90
2016,04,19,12,28,21.00
2016,04,19,12,29,21.00
2016,04,19,12,30,21.10
2016,04,19,12,31,21.10
2016,04,19,12,32,21.20
2016,04,19,12,33,21.20
2016,04,19,12,34,21.20
2016,04,19,12,35,21.30
2016,04,19,12,36,21.30
2016,04,19,12,37,21.30
2016,04,19,12,38,21.30
2016,04,19,12,39,21.30
2016,04,19,12,40,21.30
2016,04,19,12,41,21.30
2016,04,19,12,42,21.30
2016,04,19,12,43,21.30
2016,04,19,12,44,21.30
2016,04,19,12,45,21.30
2016,04,19,12,46,21.30
2016,04,19,12,47,21.30
2016,04,19,12,48,21.30
2016,04,19,12,49,21.30
2016,04,19,12,50,21.30
2016,04,19,12,51,21.30
2016,04,19,12,52,21.30
2016,04,19,12,53,21.30
2016,04,19,12,54,21.30
2016,04,19,12,55,21.30
2016,04,19,12,56,21.40
2016,04,19,12,57,21.40
2016,04,19,12,58,21.40
2016,04,19,12,59,21.40
2016,04,19,13,00,21.50
2016,04,19,13,01,21.50
2016,04,19,13,02,21.60
2016,04,19,13,03,21.60
2016,04,19,13,04,21.70
2016,04,19,13,05,21.70
2016,04,19,13,06,21.80
2016,04,19,13,07,21.80
2016,04,19,13,08,21.80
2016,04,19,13,09,21.80
2016,04,19,13,10,21.80
2016,04,19,13,11,21.80
2016,04,19,13,12,21.80
2016,04,19,13,13,21.80
2016,04,19,13,14,21.80
2016,04,19,13,15,21.70
2016,04,19,13,16,21.70
2016,04,19,13,17,21.70
2016,04,19,13,18,21.60
2016,04,19,13,19,21.60
2016,04,19,13,20,21.60
2016,04,19,13,21,21.60
2016,04,19,13,22,21.60
2016,04,19,13,23,21.60
2016,04,19,13,24,21.60
2016,04,19,13,25,21.60
2016,04,19,13,26,21.60
2016,04,19,13,27,21.50
2016,04,19,13,28,21.50
2016,04,19,13,29,21.60
2016,04,19,13,30,21.60
2016,04,19,13,31,21.60
2016,04,19,13,32,21.70
2016,04,19,13,33,21.70
2016,04,19,13,34,21.80
2016,04,19,13,35,21.80
2016,04,19,13,36,21.80
2016,04,19,13,37,21.80
2016,04,19,13,38,21.70
2016,04,19,13,39,21.70
2016,04,19,13,40,21.70
2016,04,19,13,41,21.70
2016,04,19,13,42,21.60
2016,04,19,13,43,21.70
2016,04,19,13,44,21.70
2016,04,19,13,45,21.70
2016,04,19,13,46,21.70
2016,04,19,13,47,21.70
2016,04,19,13,48,21.70
2016,04,19,13,49,21.80
2016,04,19,13,50,21.80
2016,04,19,13,51,21.80
2016,04,19,13,52,21.90
2016,04,19,13,53,21.90
2016,04,19,13,54,21.90
2016,04,19,13,55,22.00
2016,04,19,13,56,22.10
2016,04,19,13,57,22.10
2016,04,19,13,58,22.10
2016,04,19,13,59,22.10
2016,04,19,14,00,22.20
2016,04,19,14,01,22.20
2016,04,19,14,02,22.20
2016,04,19,14,03,22.20
2016,04,19,14,04,22.20
2016,04,19,14,05,22.20
2016,04,19,14,06,22.20
2016,04,19,14,07,22.20
2016,04,19,14,08,22.20
2016,04,19,14,09,22.20
2016,04,19,14,10,22.20
2016,04,19,14,11,22.20
2016,04,19,14,12,22.20
2016,04,19,14,13,22.20
2016,04,19,14,14,22.20
2016,04,19,14,15,22.20
2016,04,19,14,16,22.20
2016,04,19,14,17,22.20
2016,04,19,14,18,22.30
2016,04,19,14,19,22.30
2016,04,19,14,20,22.30
2016,04,19,14,21,22.20
2016,04,19,14,22,22.20
2016,04,19,14,23,22.20
2016,04,19,14,24,22.20
2016,04,19,14,25,22.20
2016,04,19,14,26,22.20
2016,04,19,14,27,22.20
2016,04,19,14,28,22.20
2016,04,19,14,29,22.20
2016,04,19,14,30,22.20
2016,04,19,14,31,22.20
2016,04,19,14,32,22.20
2016,04,19,14,33,22.20
2016,04,19,14,34,22.20
2016,04,19,14,35,22.20
2016,04,19,14,36,22.20
2016,04,19,14,37,22.20
2016,04,19,14,38,22.20
2016,04,19,14,39,22.30
2016,04,19,14,40,22.30
2016,04,19,14,41,22.30
2016,04,19,14,42,22.40
2016,04,19,14,43,22.40
2016,04,19,14,44,22.40
2016,04,19,14,45,22.40
2016,04,19,14,46,22.40
2016,04,19,14,47,22.40
2016,04,19,14,48,22.40
2016,04,19,14,49,22.40
2016,04,19,14,50,22.40
2016,04,19,14,51,22.40
2016,04,19,14,52,22.40
2016,04,19,14,53,22.40
2016,04,19,14,54,22.40
2016,04,19,14,55,22.40
2016,04,19,14,56,22.40
2016,04,19,14,57,22.40
2016,04,19,14,58,22.40
2016,04,19,14,59,22.40
2016,04,19,15,00,22.40
2016,04,19,15,01,22.40
2016,04,19,15,02,22.50
2016,04,19,15,03,22.50
2016,04,19,15,04,22.50
2016,04,19,15,05,22.50
2016,04,19,15,06,22.50
2016,04,19,15,07,22.50
2016,04,19,15,08,22.40
2016,04,19,15,09,22.50
2016,04,19,15,10,22.50
2016,04,19,15,11,22.40
2016,04,19,15,12,22.50
2016,04,19,15,13,22.50
2016,04,19,15,14,22.50
2016,04,19,15,15,22.50
2016,04,19,15,16,22.50
2016,04,19,15,17,22.60
2016,04,19,15,18,22.60
2016,04,19,15,19,22.60
2016,04,19,15,20,22.60
2016,04,19,15,21,22.60
2016,04,19,15,22,22.60
2016,04,19,15,23,22.60
2016,04,19,15,24,22.60
2016,04,19,15,25,22.60
2016,04,19,15,26,22.60
2016,04,19,15,27,22.70
2016,04,19,15,28,22.70
2016,04,19,15,29,22.70
2016,04,19,15,30,22.70
2016,04,19,15,31,22.70
2016,04,19,15,32,22.70
2016,04,19,15,33,22.70
2016,04,19,15,34,22.70
2016,04,19,15,35,22.70
2016,04,19,15,36,22.70
2016,04,19,15,37,22.70
2016,04,19,15,38,22.70
2016,04,19,15,39,22.70
2016,04,19,15,40,22.70
2016,04,19,15,41,22.70
2016,04,19,15,42,22.70
2016,04,19,15,43,22.70
2016,04,19,15,44,22.80
2016,04,19,15,45,22.80
2016,04,19,15,46,22.80
2016,04,19,15,47,22.90
2016,04,19,15,48,22.90
2016,04,19,15,49,22.90
2016,04,19,15,50,22.90
2016,04,19,15,51,22.90
2016,04,19,15,52,23.00
2016,04,19,15,53,23.00
2016,04,19,15,54,23.00
2016,04,19,15,55,23.00
2016,04,19,15,56,23.00
2016,04,19,15,57,23.10
2016,04,19,15,58,23.10
2016,04,19,15,59,23.10
2016,04,19,16,00,23.10
2016,04,19,16,01,23.10
2016,04,19,16,02,23.10
2016,04,19,16,03,23.10
2016,04,19,16,04,23.10
2016,04,19,16,05,23.10
2016,04,19,16,06,23.10
2016,04,19,16,07,23.10
2016,04,19,16,08,23.10
2016,04,19,16,09,23.10
2016,04,19,16,10,23.20
2016,04,19,16,11,23.20
2016,04,19,16,12,23.20
2016,04,19,16,13,23.30
2016,04,19,16,14,23.30
2016,04,19,16,15,23.40
2016,04,19,16,16,23.50
2016,04,19,16,17,23.60
2016,04,19,16,18,23.70
2016,04,19,16,19,23.70
2016,04,19,16,20,23.70
2016,04,19,16,21,23.70
2016,04,19,16,22,23.80
2016,04,19,16,23,23.80
2016,04,19,16,24,23.70
2016,04,19,16,25,23.60
2016,04,19,16,26,23.50
2016,04,19,16,27,23.40
2016,04,19,16,28,23.30
2016,04,19,16,29,23.30
2016,04,19,16,30,23.20
2016,04,19,16,31,23.20
2016,04,19,16,32,23.20
2016,04,19,16,33,23.20
2016,04,19,16,34,23.10
2016,04,19,16,35,23.10
2016,04,19,16,36,23.10
2016,04,19,16,37,23.00
2016,04,19,16,38,22.90
2016,04,19,16,39,22.90
2016,04,19,16,40,22.90
2016,04,19,16,41,22.80
2016,04,19,16,42,22.80
2016,04,19,16,43,22.70
2016,04,19,16,44,22.70
2016,04,19,16,45,22.70
2016,04,19,16,46,22.70
2016,04,19,16,47,22.70
2016,04,19,16,48,22.70
2016,04,19,16,49,22.70
2016,04,19,16,50,22.70
2016,04,19,16,51,22.70
2016,04,19,16,52,22.70
2016,04,19,16,53,22.70
2016,04,19,16,54,22.80
2016,04,19,16,55,22.80
2016,04,19,16,56,22.80
2016,04,19,16,57,22.80
2016,04,19,16,58,22.80
2016,04,19,16,59,22.80
2016,04,19,17,00,22.90
2016,04,19,17,01,22.90
2016,04,19,17,02,23.00
2016,04,19,17,03,23.00
2016,04,19,17,04,23.00
2016,04,19,17,05,23.10
2016,04,19,17,06,23.00
2016,04,19,17,07,23.00
2016,04,19,17,08,23.00
2016,04,19,17,09,23.10
2016,04,19,17,10,23.10
2016,04,19,17,11,23.10
2016,04,19,17,12,23.10
2016,04,19,17,13,23.10
2016,04,19,17,14,23.10
2016,04,19,17,15,23.10
2016,04,19,17,16,23.10
2016,04,19,17,17,23.00
2016,04,19,17,18,23.00
2016,04,19,17,19,22.90
2016,04,19,17,20,22.90
2016,04,19,17,21,22.80
2016,04,19,17,22,22.70
2016,04,19,17,23,22.70